Find Starlink 35708

NORAD ID: 66277 Int'l Des: 2025-247 Owner: SPXS Country: US Constellation: starlink operational
LEOCIRCULAR

当前视图

正在加载3D地球...

关于 Starlink 35708

正在加载描述...

即将过境

Passes for default location (London). Set your location on the main map for personalized predictions.

高度历史

Loading altitude history...

两行轨道根数

1 66277U 25247N 26145.86422709 .00019120 00000-0 57553-3 0 9995
2 66277 53.1585 191.9696 0001182 92.6714 267.4424 15.34403284 32917
Epoch: May 25, 2026 • Age: 20 hours

当前状态

高度 462.7 km
速度 7.64 km/s
星下点 6.47°N, 124.61°W
发射日期 Oct 31, 2025
运行时间 0.5 years
类型 internet

技术详情

分类 Payload
质量 575.00 kg
干质量 530.00 kg
总质量 575.00 kg
长度 0.30 m
直径 4.10 m
跨度 29.00 m
形状 Box + pan
制造商 SPXS
平台类型 Starlink V2MO
阶段状态 In Orbit
所有者/国家 SPXS/US

Most Searched